Tracking 18980 objects as of 17-Feb-2018
HD Live streaming from Space Station
objects crossing your sky now

SL-16 R/B

Track SL-16 R/B now!
10-day predictions
SL-16 R/B is classified as:


NORAD ID: 22285
Int'l Code: 1992-093B
Perigee: 847.8 km
Apogee: 850.9 km
Inclination: 71.0 °
Period: 101.8 minutes
Semi major axis: 7220 km
RCS: 8.7386 m2 (large)
Launch date: December 25, 1992
Source: Commonwealth of Independent States (former USSR) (CIS)
Launch site: TYURATAM MISSILE AND SPACE COMPLEX (TTMTR)

Note: This is a ROCKET BODY
aabbcc
Your satellite tracking list
Your tracking list is empty




NASA's NSSDC Master Catalog

Two Line Element Set (TLE):
1 22285U 92093B   18048.46474968 -.00000122  00000-0 -38502-4 0  9990
2 22285  71.0217  57.7469 0002132 140.4062 219.7217 14.15022919297238
Source of the keplerian elements: AFSPC